Location: Roswell
(33.3940°N, 104.5230°W)
Time: 23:54:57
(UTC-06:00)

N. Korean satellite - Visible Passes

Search period start: 25 October 2021 00:00
Search period end: 04 November 2021 00:00
Orbit: 450 x 495 km, 97.3° (Epoch: 25 October)

Date Brightness Start Highest point End Pass type
(mag) Time Alt. Az. Time Alt. Az. Time Alt. Az.
25 Oct 9.4 05:27:10 10° NE 05:29:54 20° E 05:32:37 10° SE visible
26 Oct 6.9 06:31:33 10° N 06:35:01 43° WNW 06:38:24 10° SSW visible
26 Oct 10.4 18:36:52 10° WSW 18:38:05 11° W 18:39:19 10° WNW visible
27 Oct 6.8 06:03:20 10° NNE 06:06:57 70° E 06:10:30 10° S visible
28 Oct 8.9 05:35:42 10° NE 05:38:46 26° E 05:41:49 10° SSE visible
29 Oct 10.2 05:09:28 10° ENE 05:10:29 11° E 05:11:30 10° ESE visible
29 Oct 7.3 06:40:32 10° N 06:43:46 32° WNW 06:46:57 10° SW visible
30 Oct 6.4 06:12:07 10° N 06:15:44 85° WNW 06:19:16 10° SSW visible
31 Oct 8.3 05:44:15 10° NNE 05:47:34 35° E 05:50:49 10° SSE visible
01 Nov 9.8 05:17:15 10° ENE 05:19:17 14° E 05:21:16 10° SE visible
01 Nov 7.6 06:49:30 10° NNW 06:52:27 24° WNW 06:55:20 10° SW visible
02 Nov 6.5 06:20:53 10° N 06:24:24 62° WNW 06:27:53 10° SSW visible
03 Nov 7.6 05:52:48 10° NNE 05:56:16 47° E 05:59:39 10° S visible
